Regional Weather Roundup
Issued by NWS Goodland, KS

Home | Current Version | Previous Version | Text Only | Print | Product List | Glossary Off
Versions: 1 2 3 4 5 6 7 8 9 10 11 12 13 14 15 16 17 18 19 20 21 22 23 24 25 26 27 28 29 30 31 32 33 34 35 36 37 38 39 40 41 42 43 44 45 46 47 48 49 50

000
ASUS43 KGLD 011108
RWRGLD

GOODLAND FORECAST AREA HOURLY WEATHER ROUNDUP
NATIONAL WEATHER SERVICE GOODLAND KS
500 AM MDT SUN MAY 01 2016

...OFFICIAL OBSERVATIONS...

CITY           SKY/WX    TMP DP  RH WIND       PRES   REMARKS
GOODLAND KS    CLOUDY    35  33  92 N15G24    30.11R
HILL CITY KS   CLOUDY    40  37  89 NW14      30.04R
IMPERIAL NEB   CLOUDY    35  33  92 N21       30.14R
MCCOOK NEB     LGT RAIN  37  34  89 N17       30.08R
AKRON CO       CLOUDY    32  30  92 N21       30.19R WCI  20
BURLINGTON CO  CLOUDY    34  31  88 N20G29    30.13R
LIMON CO       CLOUDY    31  30  96 N25G37    30.18R WCI  17
$$

...UNOFFICIAL OBSERVATIONS...

CITY           SKY/WX    TMP DP  RH WIND       PRES   REMARKS
COLBY KS       CLOUDY    36  36 100 NW14      30.11R
LENORA KS        N/A     37  32  82 MISG        N/A
NORTON KS      RAIN      37  34  87 NW16      30.04R
SHARON SPRINGS   N/A     36  33  88 N17G26      N/A
TRIBUNE KS     CLOUDY    37  34  87 NW21G30   30.12
KIT CARSON CO    N/A     34  31  89 MISG        N/A
YUMA CO          N/A     33  31  93 NE12        N/A
$$



USA.gov is the U.S. government's official web portal to all federal, state and local government web resources and services.